Wind_Speed
32 31 32 37 45 47 45 46 49 51 51 50 50 48 47 46 43 40 38 38 38 39 40 41 41 41 42 42 43 43 44 44 45 45 45 45 44 42 41 39 38 36 35 33 31 29 28 26 24 22 21 20 18 16 14 12 10 9 8 7 6 6 7 8 8 6 5 5 5 6 6 5 5 4 4 3 3 4 4 4 4 5 5 4 4 4 4 5
33 33 32 36 45 49 46 46 50 53 52 51 50 48 47 44 41 39 37 36 37 39 40 40 41 42 42 43 43 43 44 44 44 45 45 45 44 43 42 40 38 37 35 33 31 30 28 26 24 23 22 20 19 17 15 12 11 9 9 7 6 6 7 8 8 7 6 6 6 6 6 6 5 5 4 3 2 2 3 4 4 4 5 4 4 4 4 4
35 34 33 36 44 51 49 46 50 54 54 53 51 50 47 44 41 39 37 35 35 36 38 39 40 41 42 42 43 43 44 44 44 45 45 45 44 43 42 40 38 37 35 34 32 30 28 27 25 23 21 20 19 17 15 14 12 11 10 8 7 7 9 9 8 8 8 7 7 7 6 6 6 5 5 4 3 2 2 3 3 4 4 5 5 4 4 4
36 36 35 35 42 50 51 48 49 54 55 54 53 50 47 43 40 38 37 36 35 35 35 36 38 40 41 41 41 42 43 43 44 45 46 45 44 43 42 41 39 37 36 34 32 30 29 27 25 24 22 20 19 17 16 15 14 13 11 9 9 9 10 11 10 10 9 8 8 7 7 6 6 5 5 5 5 3 2 2 2 4 4 4 5 5 5 4
37 37 36 35 39 47 52 50 49 53 56 55 53 51 48 44 41 40 39 38 37 36 36 35 36 38 39 40 40 40 41 42 43 44 45 45 44 44 43 41 40 38 36 34 32 30 29 27 25 24 23 22 20 19 17 16 15 14 13 11 12 11 12 13 11 11 11 10 10 8 7 7 6 5 5 6 6 5 4 2 1 2 4 4 5 5 5 5
39 39 38 37 37 43 51 53 50 52 56 57 54 51 49 47 44 43 41 40 39 38 37 36 36 36 37 38 39 40 41 41 42 43 43 43 43 43 43 42 41 39 37 35 33 32 30 28 26 25 23 22 21 20 19 18 17 16 15 14 14 14 14 14 12 12 12 11 11 9 9 8 6 6 5 5 6 6 5 4 2 1 2 3 3 4 4 4
40 40 40 39 38 40 47 53 54 53 55 57 55 53 52 49 46 44 42 41 40 38 37 37 36 35 35 37 38 40 41 42 42 43 43 43 43 43 43 42 41 40 38 37 35 33 31 29 28 26 25 24 23 22 20 20 19 18 17 16 16 16 16 14 13 14 14 13 12 11 10 9 7 6 6 5 5 6 6 5 4 3 2 1 2 2 2 3
41 42 41 40 40 40 43 49 54 55 54 55 55 54 53 50 47 44 43 42 40 40 38 38 37 36 35 36 37 39 40 41 42 43 43 44 44 44 44 43 42 40 38 37 35 33 32 30 29 28 26 25 24 23 22 22 21 19 18 18 18 18 17 16 16 16 16 15 13 12 11 10 9 7 7 6 5 6 7 6 6 4 3 2 1 1 0 0
43 43 42 42 42 42 43 46 50 53 54 54 54 54 53 51 49 45 43 42 41 40 39 38 38 37 35 35 36 37 39 39 41 42 43 43 44 44 43 43 42 40 39 37 36 34 33 31 30 29 27 27 26 25 25 24 22 21 20 21 20 19 19 18 17 17 17 16 14 13 12 12 10 9 7 7 6 7 8 7 7 5 4 4 3 2 1 1
45 44 44 43 43 43 44 44 46 49 53 55 54 54 54 53 50 47 44 43 41 40 39 39 38 38 36 35 34 35 37 38 39 40 42 42 42 43 42 42 41 40 39 38 36 35 34 32 31 30 29 28 28 27 27 25 24 23 23 23 22 22 21 20 19 19 18 17 16 14 13 12 12 10 7 7 8 8 8 9 8 7 6 5 5 4 3 2
46 45 45 45 45 45 45 46 46 46 49 53 55 55 55 54 51 48 46 44 43 41 40 39 38 38 37 36 35 34 35 37 37 38 40 40 41 41 41 40 40 39 38 37 36 35 34 33 32 31 31 30 29 29 28 26 25 25 25 25 24 23 22 21 20 20 19 18 17 15 14 13 13 11 8 7 9 8 9 10 10 9 8 7 6 5 5 4
47 46 47 47 46 46 47 48 47 46 46 49 54 56 55 55 52 49 47 46 44 43 41 40 39 38 38 37 36 35 35 36 36 37 38 39 39 39 39 39 39 38 38 37 36 36 35 34 33 32 32 31 30 30 29 28 27 27 27 26 25 23 22 22 21 21 21 20 18 17 15 15 14 11 9 9 9 9 9 10 10 10 9 9 8 7 6 5
47 47 48 48 47 48 48 49 49 48 47 47 51 55 57 56 53 50 49 47 46 44 42 40 39 38 38 37 38 37 36 36 36 37 38 38 38 38 38 38 38 37 37 36 36 35 35 34 34 33 32 31 31 31 30 29 28 28 27 26 25 24 23 23 22 22 22 20 19 18 16 16 15 12 11 10 10 10 9 10 11 11 10 9 9 8 7 6
48 48 50 50 49 49 50 50 51 50 49 48 49 54 58 57 54 51 50 49 47 45 43 42 40 39 38 37 38 38 37 36 36 36 37 38 38 37 37 37 36 36 36 36 35 35 35 34 34 33 32 32 32 32 31 30 29 29 28 27 26 25 24 24 24 23 23 22 21 19 18 18 16 13 12 12 11 11 11 11 11 11 11 10 10 9 8 7
48 49 51 51 50 50 51 51 51 52 52 50 50 53 59 59 55 52 51 50 48 47 45 43 41 40 38 37 38 38 37 36 36 36 37 37 37 37 37 36 36 35 35 35 35 34 34 34 33 33 32 32 32 32 31 30 30 29 29 28 27 26 25 25 25 24 24 23 22 20 19 19 16 14 15 14 12 12 12 12 12 12 12 11 10 9 8 7
48 49 51 52 52 51 51 52 52 54 54 53 52 53 59 60 56 53 52 51 50 48 46 44 43 41 39 38 37 37 36 36 36 36 36 37 37 37 36 36 36 35 35 35 34 34 34 34 34 33 33 33 33 33 32 31 30 30 29 28 27 27 27 26 25 25 24 23 23 21 20 19 17 16 16 15 13 13 13 12 12 12 12 11 11 10 9 8
48 49 51 53 53 52 52 53 53 56 56 55 55 55 59 61 57 54 53 52 51 49 48 46 44 42 40 38 37 37 36 36 36 36 36 36 36 36 36 36 35 35 35 35 34 34 34 34 34 33 33 33 34 33 32 31 30 29 29 28 28 28 27 27 26 25 25 24 24 22 20 19 19 18 17 16 14 13 13 13 13 12 12 12 11 11 10 9
48 48 50 53 54 53 53 53 54 57 58 57 57 57 59 62 59 55 54 53 52 51 49 47 45 43 41 38 37 37 36 36 35 36 36 36 36 36 36 36 35 35 35 34 34 34 34 34 33 33 33 34 33 32 31 30 29 29 30 29 29 28 27 26 26 26 26 25 24 23 20 20 21 19 18 17 15 14 14 14 14 13 13 13 12 11 10 10
48 48 50 53 55 54 54 54 55 57 59 58 58 58 59 62 62 57 55 54 53 52 50 48 46 43 41 38 38 37 36 35 35 35 36 36 36 36 36 36 35 35 34 34 33 33 33 33 33 33 32 32 31 30 30 30 31 31 31 30 29 28 26 26 26 26 26 25 24 23 21 21 22 20 19 18 16 14 15 15 14 14 14 14 13 11 10 11
47 48 49 53 56 56 55 55 55 56 59 60 59 59 59 62 64 60 56 55 54 53 51 48 46 44 42 39 39 38 36 35 35 35 36 36 36 36 36 36 35 35 34 33 33 32 33 33 32 31 30 30 31 31 32 32 32 31 31 30 29 28 27 27 27 27 27 26 26 26 24 22 22 22 21 20 17 15 16 17 16 16 16 15 13 12 12 12
46 47 49 53 56 56 56 55 55 56 59 60 59 59 58 60 63 60 56 56 55 54 53 50 48 46 43 41 40 39 37 36 35 35 35 36 36 36 36 36 35 35 34 33 32 32 32 32 31 31 31 32 33 33 33 32 32 31 31 30 30 29 28 28 28 28 28 28 27 27 25 22 22 24 23 21 18 17 19 19 18 18 18 16 14 14 14 13
46 47 48 52 56 57 56 56 55 55 58 60 60 59 58 59 63 60 55 55 55 55 54 53 50 48 45 43 41 40 39 37 36 36 35 35 35 36 36 36 35 35 34 33 32 31 31 31 31 31 32 32 33 33 33 32 32 31 31 31 30 29 29 29 29 29 29 29 28 29 26 23 23 25 25 23 19 19 21 20 20 20 19 17 16 17 16 14
46 46 48 51 55 57 57 56 56 55 57 59 61 60 59 60 63 61 56 56 56 56 55 54 52 49 47 44 42 41 40 38 37 36 35 35 34 35 35 35 35 35 34 33 32 31 30 30 31 32 32 32 32 32 32 32 31 31 31 31 30 30 30 29 30 29 29 29 29 30 27 24 24 26 25 24 21 20 22 22 21 21 20 19 18 17 17 16
47 46 48 51 55 57 57 56 56 56 56 58 61 61 61 61 63 62 59 58 58 57 57 56 54 51 48 45 43 42 41 40 38 37 36 35 34 34 34 35 35 35 34 34 33 32 31 31 31 32 32 33 33 32 32 32 32 31 31 31 31 31 31 30 30 30 30 30 30 30 29 25 25 27 26 25 24 23 23 23 23 23 21 21 20 18 19 18
47 47 48 50 54 57 57 57 56 56 56 57 60 61 62 62 63 64 62 60 60 59 59 58 57 54 51 47 45 44 43 41 40 38 37 36 36 35 35 35 35 35 35 34 34 33 32 32 31 32 32 33 33 33 32 32 32 32 32 32 32 32 32 32 31 31 31 31 31 31 31 27 26 28 27 26 26 26 25 24 24 24 23 23 21 20 21 21
48 47 48 49 52 56 57 57 57 57 57 57 59 60 62 63 64 65 64 63 63 62 61 60 59 57 53 50 47 46 45 44 42 40 38 38 37 37 36 36 36 36 35 35 35 34 33 32 32 32 32 32 33 33 32 32 32 33 33 33 33 33 34 33 32 32 32 32 31 31 33 29 26 28 28 27 28 28 27 26 24 25 25 24 22 22 23 23
49 48 49 49 51 54 57 57 57 57 57 58 59 60 61 63 64 64 64 65 66 64 63 62 60 58 55 53 50 47 47 45 44 43 41 40 39 38 38 37 36 36 36 36 36 34 33 33 32 32 31 31 32 32 32 32 33 34 34 34 34 34 34 34 33 33 33 32 32 32 33 30 26 26 28 29 29 29 29 27 26 26 26 25 24 24 25 26
50 50 49 50 51 53 55 57 57 57 57 58 58 59 61 62 63 64 64 66 68 66 65 64 61 59 57 56 53 49 48 46 45 45 43 42 41 40 39 38 37 37 37 36 35 34 33 33 33 32 31 31 31 31 32 32 34 35 35 35 35 35 35 35 35 34 34 34 33 31 32 33 27 23 26 30 30 30 29 27 27 28 28 27 26 26 27 28
52 51 50 51 51 52 53 55 56 56 57 58 59 59 61 62 63 63 64 67 68 67 65 65 63 62 60 58 55 52 49 48 48 47 45 45 44 42 41 40 39 39 38 37 36 35 35 35 34 34 33 32 32 32 32 33 34 35 35 36 35 36 36 36 36 35 35 35 33 31 31 34 29 22 25 30 30 29 28 28 29 30 29 29 28 29 29 30
53 52 52 51 51 52 52 54 56 56 57 58 59 60 61 62 63 64 66 68 68 66 66 65 64 63 62 60 58 55 53 51 49 49 48 48 47 45 44 43 42 41 40 39 39 38 37 36 36 36 35 34 33 33 33 34 34 34 35 36 36 37 37 37 37 36 37 36 33 32 31 33 33 24 24 28 30 29 29 29 30 30 29 30 30 31 32 32
54 53 52 51 50 51 51 52 54 55 57 58 58 60 61 62 64 66 68 68 67 66 66 65 64 63 62 60 59 57 55 54 52 52 51 50 49 48 47 46 45 44 43 42 41 40 38 38 37 36 35 34 34 34 34 34 34 35 35 35 36 37 37 38 38 38 38 36 34 34 32 34 35 27 24 28 29 29 30 30 30 30 30 31 32 33 34 34
54 53 52 51 50 50 51 52 52 53 55 57 59 60 60 62 65 67 66 66 67 67 66 65 64 63 62 61 60 59 58 57 55 54 53 52 51 50 49 48 47 46 45 44 42 41 40 39 38 37 36 35 35 35 35 36 36 36 36 36 36 37 37 38 39 40 40 38 37 37 35 35 35 30 27 28 28 30 31 31 32 32 32 33 34 35 36 36
54 53 52 51 50 50 51 51 51 52 53 56 58 59 60 63 65 65 64 65 68 68 66 64 63 62 62 62 61 61 60 59 57 56 56 55 54 53 51 50 49 47 46 45 44 43 42 41 39 38 38 37 37 37 37 37 37 37 37 37 37 37 38 38 39 41 40 40 40 40 39 36 34 33 33 30 28 29 30 32 32 33 33 34 36 37 37 37
52 52 52 52 51 51 50 50 51 52 53 55 57 58 61 64 63 61 62 65 67 68 66 65 64 63 63 62 61 61 61 61 60 58 58 58 57 56 55 53 51 50 48 48 47 46 45 44 42 41 40 39 39 38 38 38 38 39 38 39 39 38 39 39 40 40 40 41 42 42 42 38 35 35 36 34 32 31 30 31 33 34 35 36 37 38 37 38
52 52 52 53 54 53 52 52 52 53 55 56 57 59 61 62 61 60 63 64 65 66 66 66 65 64 64 64 63 62 62 61 61 60 60 59 58 57 56 55 53 52 51 50 50 49 48 46 44 44 43 42 41 41 41 41 41 41 41 41 40 39 39 41 42 41 40 42 43 43 43 40 37 38 38 38 37 34 33 34 36 37 38 39 40 39 38 39
54 53 53 53 55 55 54 55 54 55 56 57 58 59 59 58 59 61 63 63 64 65 66 66 66 66 65 65 64 64 63 62 61 61 61 60 59 58 57 56 55 53 52 51 50 50 49 48 47 46 46 45 45 45 44 44 44 43 42 41 40 40 41 42 43 42 43 44 44 43 42 40 39 39 38 38 39 38 38 38 38 40 40 42 44 42 41 43
59 56 54 55 56 56 56 57 58 58 58 59 59 56 52 53 57 59 60 61 62 64 65 65 65 66 66 66 66 65 64 64 63 63 62 61 61 60 58 57 56 55 53 52 52 52 51 50 49 48 47 47 46 46 46 45 45 44 44 42 42 44 45 44 45 45 45 46 45 43 42 41 40 39 37 38 39 40 41 40 40 40 41 43 44 43 44 45
57 57 56 57 56 56 57 57 59 60 61 61 60 55 52 53 55 57 58 60 61 63 64 64 64 65 65 66 66 65 65 65 64 64 63 62 62 60 58 58 57 55 54 53 53 53 52 52 52 51 50 49 49 49 48 47 46 46 45 45 46 48 48 47 47 47 47 48 46 45 44 43 41 39 38 39 40 41 42 42 41 42 42 43 44 45 45 45
52 52 55 59 58 55 56 56 56 60 62 60 56 54 54 54 55 56 57 58 60 61 63 63 63 63 64 64 64 64 64 64 64 64 63 63 62 60 58 58 57 56 55 55 54 54 53 53 54 54 52 52 52 52 51 49 49 48 48 49 49 50 50 49 49 49 48 49 49 47 46 45 42 40 40 41 41 41 43 43 42 43 44 45 46 46 46 46
52 50 50 56 60 57 55 55 55 58 59 55 52 52 53 53 55 55 56 57 59 60 61 61 61 61 62 63 63 62 62 62 62 63 62 62 61 59 58 57 57 56 55 55 55 55 55 55 55 55 55 55 54 53 51 51 50 50 50 51 51 51 51 51 51 51 50 50 50 50 50 47 43 41 41 42 42 43 44 44 44 45 47 47 47 47 47 46
54 54 50 52 58 59 56 56 58 60 57 51 50 53 53 54 56 55 55 56 57 59 59 60 60 59 59 61 61 62 62 62 62 62 62 62 61 61 59 57 56 56 56 57 58 57 57 57 57 57 58 57 55 53 52 51 51 51 52 51 51 52 52 53 54 53 52 52 52 53 53 50 45 43 43 44 44 46 47 46 47 48 48 48 48 48 48 47
52 55 54 52 55 59 60 60 61 62 61 54 50 50 50 53 56 56 56 55 55 56 57 58 59 58 57 57 57 58 59 60 61 61 61 61 61 60 59 57 56 56 56 56 56 55 54 56 57 58 58 57 55 55 54 54 54 54 54 54 54 55 55 56 57 55 54 54 54 55 56 54 49 46 45 46 47 49 49 49 50 50 49 49 49 50 50 50
52 54 57 56 56 60 63 64 63 63 63 60 55 52 49 49 51 53 54 55 55 54 54 55 56 57 57 56 55 55 55 56 57 57 57 57 57 56 57 57 56 56 57 57 57 56 55 57 59 59 59 58 58 58 57 57 57 57 58 57 57 57 58 58 58 58 58 58 56 57 57 54 51 48 48 48 49 51 51 51 51 50 50 50 50 50 51 52
54 55 57 59 61 62 64 65 65 64 64 62 60 58 55 51 50 48 49 51 53 54 54 54 55 55 55 55 55 54 54 54 54 53 53 53 53 53 54 55 55 56 57 58 58 58 58 60 61 62 63 63 63 63 63 62 63 63 62 61 60 60 60 61 61 61 63 60 59 61 59 53 51 51 50 51 52 52 52 51 51 51 51 51 51 51 52 52
55 56 57 60 63 65 65 65 65 65 64 63 63 62 61 60 56 52 50 50 50 51 53 54 55 55 55 55 55 55 54 54 53 53 52 52 52 52 52 53 54 54 54 55 56 56 57 59 60 62 65 66 67 66 64 63 63 63 63 62 61 61 60 61 60 61 64 61 60 64 60 54 53 53 53 54 54 53 52 51 52 53 53 53 53 53 52 52
55 56 58 59 62 65 67 67 67 67 66 65 65 64 63 63 61 59 58 55 53 51 50 52 54 54 55 56 56 56 56 55 55 55 54 53 53 53 52 53 53 53 52 53 54 54 56 58 59 61 63 65 65 63 59 57 58 59 59 59 58 58 58 58 58 61 63 61 62 64 61 58 57 56 56 56 54 54 53 51 52 54 54 53 53 53 53 53
55 56 57 59 61 63 66 68 68 68 67 67 68 67 65 64 63 62 62 61 59 56 54 53 52 52 53 53 54 54 54 55 56 56 56 55 55 55 54 54 54 54 53 53 53 54 56 57 58 59 60 61 61 60 59 59 59 59 59 59 58 58 58 58 61 63 62 61 64 63 59 59 58 55 54 53 53 54 54 53 54 54 54 54 53 54 55 55
55 55 56 58 60 61 64 65 66 66 67 67 68 68 68 67 66 65 64 63 62 61 60 59 56 54 52 51 53 53 52 53 54 55 55 56 56 57 57 57 56 56 56 55 56 56 57 57 57 57 58 58 59 60 61 61 61 61 61 60 60 59 60 61 62 61 59 60 62 58 56 58 57 54 53 52 52 55 54 53 54 53 53 55 56 57 57 56
54 54 54 56 59 61 62 63 64 66 66 66 66 66 66 66 66 65 63 63 63 63 63 62 59 57 56 55 56 56 55 54 53 52 52 53 55 56 57 58 59 58 58 57 57 58 58 58 58 59 59 59 59 60 60 61 62 62 61 61 61 60 61 61 61 60 58 60 60 57 58 59 57 55 55 52 52 53 53 53 53 53 54 56 57 60 60 60
54 53 53 55 57 59 61 62 63 65 66 67 66 65 64 64 63 63 63 63 63 62 62 61 60 59 60 59 58 59 58 57 55 53 52 53 53 53 53 54 54 54 55 55 55 57 58 59 60 60 60 61 61 61 61 62 63 63 63 62 62 62 62 62 62 61 61 62 59 58 60 60 57 55 54 53 53 54 54 55 55 56 58 58 59 62 64 64
54 54 54 54 56 58 60 60 60 62 65 67 66 64 64 64 63 63 64 65 65 63 61 60 60 62 63 63 63 61 60 59 57 55 54 55 56 54 53 53 53 52 52 54 54 55 56 57 58 58 60 61 61 61 63 64 64 66 67 66 64 64 64 64 64 63 62 62 60 60 62 61 57 55 54 55 58 59 59 59 60 61 61 61 62 64 65 64
56 56 55 56 56 57 59 59 59 60 63 64 64 63 63 64 64 64 66 67 67 67 65 63 63 64 66 66 65 63 62 63 62 59 57 57 57 56 56 56 56 55 54 56 56 55 55 55 55 55 57 57 57 58 60 62 65 68 68 66 66 66 66 66 65 64 64 63 62 63 63 60 58 58 59 60 61 61 61 63 64 64 63 63 63 63 62 62
Wind_Direction
205 205 202 199 197 195 195 195 192 189 186 184 183 183 184 184 185 188 190 190 189 187 184 182 182 183 185 187 187 186 186 185 184 182 181 182 181 180 180 180 179 179 180 179 179 179 179 179 180 181 182 183 185 192 192 187 187 188 191 188 182 179 168 175 179 177 176 166 161 149 143 145 146 148 137 114 77 54 45 57 57 58 65 62 60 61 53 57
204 204 202 198 197 195 194 196 194 190 188 186 185 185 187 187 188 190 191 192 191 189 188 186 184 184 184 186 187 187 187 187 186 185 184 183 182 182 182 182 182 182 182 183 183 182 183 182 184 188 190 190 191 195 197 195 196 200 207 204 192 186 186 193 185 177 185 185 181 169 158 154 157 162 157 150 122 80 52 58 65 67 74 76 74 71 61 55
203 203 203 198 197 196 194 197 196 192 189 188 186 187 188 188 189 190 191 192 192 190 189 189 187 186 185 186 187 187 188 188 188 187 186 185 184 184 185 185 185 185 186 187 187 186 186 187 189 192 195 198 200 201 202 203 204 208 216 215 203 196 200 205 191 185 191 194 197 184 168 165 167 171 171 171 163 140 90 65 70 74 77 84 87 86 79 66
202 202 203 199 197 197 195 197 198 194 191 190 188 188 188 187 187 189 190 191 191 190 189 189 189 188 187 187 187 188 189 190 190 188 187 187 186 186 187 188 188 188 189 190 190 190 190 191 193 196 199 203 207 209 209 211 212 215 222 221 214 205 206 211 199 194 196 195 206 194 175 180 178 177 182 182 180 174 150 103 79 81 80 81 88 91 90 82
202 201 203 201 198 197 197 197 199 197 194 192 190 189 187 184 185 188 189 190 189 189 189 189 189 189 189 189 189 190 191 192 192 190 190 189 188 189 190 191 191 192 193 193 194 194 195 196 199 202 205 207 212 215 216 218 218 221 226 227 224 215 211 218 208 202 203 196 206 205 191 195 190 184 192 189 189 192 177 161 127 96 91 83 85 91 92 90
203 201 202 202 199 198 198 198 200 200 196 194 191 189 186 183 184 186 188 188 187 187 188 189 189 189 190 190 192 192 192 193 192 192 192 192 191 192 193 193 194 195 196 197 197 198 199 200 203 208 211 215 218 220 221 223 223 224 229 231 230 224 220 224 215 208 210 203 203 209 207 206 198 193 202 199 195 204 198 183 185 154 113 98 91 91 92 91
203 201 202 202 201 199 199 199 201 201 198 196 193 189 186 183 183 186 186 187 186 186 187 188 188 189 189 190 192 193 194 194 193 194 194 194 194 195 196 197 197 198 199 200 201 201 203 204 207 210 215 220 224 227 228 228 228 228 232 235 235 231 226 226 220 214 215 212 207 208 214 214 206 201 209 212 203 211 214 200 196 194 181 148 115 98 91 86
204 202 202 201 201 200 200 200 203 203 199 197 195 191 187 184 184 186 187 186 187 186 187 188 189 189 189 189 190 192 194 194 195 196 196 196 197 198 199 200 200 201 201 203 204 205 207 209 211 214 218 223 227 231 233 233 232 233 235 237 236 233 229 226 223 219 217 216 214 211 216 219 215 209 212 221 212 215 222 215 209 205 204 207 190 177 139 48
204 202 202 201 201 201 201 201 203 204 202 198 196 193 190 187 185 186 187 188 188 189 190 190 190 190 191 191 190 190 192 193 195 196 197 198 198 200 201 202 203 203 204 205 207 208 210 212 215 217 221 225 229 232 234 234 234 235 236 237 235 232 232 229 224 223 221 219 218 217 220 221 221 217 216 228 223 215 222 221 218 215 214 216 215 218 232 264
204 203 202 202 201 201 201 202 202 203 203 200 197 195 192 189 186 185 186 188 190 191 192 193 193 192 192 193 193 192 191 192 194 196 197 198 199 200 202 203 204 205 206 207 209 211 212 214 216 218 221 224 227 230 233 233 234 235 236 235 234 232 232 230 225 225 224 222 221 221 224 226 227 223 217 230 233 220 219 222 218 215 216 217 218 221 225 241
204 203 203 202 201 201 201 202 202 203 203 201 198 195 194 190 185 184 187 189 191 192 194 195 195 194 194 195 197 196 193 192 193 195 197 198 200 201 202 204 205 206 207 208 210 212 214 215 217 219 221 223 225 229 231 232 233 234 234 233 233 233 232 230 227 226 226 225 224 224 226 231 232 228 220 227 235 227 218 221 220 216 217 216 216 219 222 227
204 204 203 203 201 201 200 201 202 202 203 202 199 195 194 190 185 185 189 190 193 193 195 196 197 197 195 196 199 198 196 195 195 195 196 197 199 200 201 202 204 206 207 208 210 212 214 216 217 219 221 223 224 227 229 230 231 232 232 231 233 234 231 231 229 227 227 226 227 226 227 234 235 230 229 231 236 234 221 218 221 220 217 217 215 218 222 225
205 204 204 203 201 201 200 201 200 201 203 204 202 197 193 189 185 188 191 192 194 195 196 198 198 198 197 198 200 199 198 198 198 198 198 198 199 200 201 201 203 204 206 208 210 212 214 216 217 218 220 222 223 226 227 228 228 229 230 230 232 232 230 230 229 227 228 227 228 227 228 235 235 231 235 238 237 237 229 218 218 219 219 220 218 218 222 225
205 204 204 204 202 201 200 201 199 198 201 203 204 200 193 189 187 190 193 194 195 196 198 199 200 200 199 199 200 199 199 199 200 200 200 200 200 201 202 202 203 204 206 208 210 212 213 215 216 217 218 220 222 225 226 226 227 227 228 229 229 229 228 228 227 227 228 227 228 228 229 234 234 233 240 240 236 236 231 221 216 215 217 221 223 223 223 226
205 204 204 204 203 201 201 201 199 197 199 202 205 203 195 190 189 191 195 196 196 198 199 200 201 201 201 202 200 199 199 199 201 201 201 201 201 202 203 203 204 205 206 207 209 211 213 214 215 216 217 219 222 224 225 226 227 227 227 227 228 227 226 227 226 227 227 227 228 227 230 235 233 232 241 242 239 238 232 224 219 215 214 218 224 227 227 229
205 204 204 204 203 202 201 201 199 197 198 200 204 204 198 192 190 192 197 198 198 199 200 201 202 202 203 203 202 200 200 200 201 202 202 202 202 202 203 203 204 205 206 208 209 211 213 214 216 217 218 220 222 224 225 225 226 227 227 226 226 226 225 226 226 226 228 228 229 228 229 235 233 230 238 242 241 239 233 225 222 219 216 217 222 227 230 233
205 204 203 204 203 202 202 201 200 198 198 200 203 204 201 195 192 193 198 200 200 200 200 202 203 203 204 204 203 202 202 202 201 202 202 203 203 203 203 203 204 205 207 208 210 212 215 216 218 219 220 222 224 225 225 226 226 227 227 225 225 225 224 226 226 227 229 229 229 229 227 233 236 232 236 241 240 237 232 226 223 221 219 221 226 231 233 237
204 204 203 204 203 202 202 202 201 199 199 201 202 204 203 199 194 194 198 201 201 201 202 202 203 204 204 203 204 204 204 204 203 203 203 203 204 204 204 205 206 207 208 210 212 214 217 218 220 220 221 223 225 226 226 225 225 225 225 223 223 224 224 225 227 227 230 231 231 231 228 231 237 236 236 240 238 233 229 226 223 220 221 226 232 237 243 248
205 204 203 203 203 203 202 202 202 201 200 202 203 204 205 202 197 196 198 201 203 203 204 203 203 204 204 204 206 207 206 206 205 205 205 204 205 205 206 207 207 209 210 213 215 217 218 220 221 222 223 224 224 224 224 223 222 223 223 222 222 224 224 226 228 229 231 232 233 233 228 229 235 237 237 237 235 230 228 226 223 222 225 230 235 241 249 257
205 205 203 203 203 203 203 203 202 202 201 203 204 205 206 204 200 197 198 201 204 205 205 204 204 205 206 207 209 209 208 208 207 207 207 207 207 207 208 208 209 210 212 214 216 218 220 221 222 221 221 221 221 221 222 221 222 223 223 223 223 223 223 225 228 229 231 232 233 233 227 225 232 237 237 236 234 230 226 225 225 226 230 235 238 242 248 254
205 205 204 204 204 203 203 203 203 203 202 203 205 205 207 206 202 199 200 203 205 206 206 206 206 207 207 208 210 210 210 209 209 209 209 209 209 209 209 210 211 212 213 215 217 219 220 221 221 220 219 219 219 220 221 221 222 222 223 224 224 223 223 225 227 229 231 232 233 234 228 222 227 234 237 237 232 227 225 225 228 231 234 238 241 244 247 251
205 205 204 204 204 204 204 204 203 203 203 204 205 206 206 205 203 201 203 207 208 208 208 208 207 208 208 209 210 211 211 211 211 211 211 210 211 211 211 211 212 213 213 215 217 219 221 221 220 219 219 220 220 221 222 223 223 223 224 225 226 225 224 226 229 230 232 234 234 236 231 222 225 231 235 237 232 227 228 228 230 234 237 240 243 247 249 250
205 204 204 204 204 204 204 204 204 204 204 205 205 206 205 205 204 203 205 208 209 210 211 210 209 209 209 210 211 212 213 213 213 213 213 212 212 213 213 213 214 214 215 216 217 219 220 220 220 221 221 221 221 222 223 224 225 225 226 227 228 229 228 228 230 232 233 235 235 237 234 225 225 229 232 236 234 229 231 230 231 234 237 241 245 250 254 256
205 205 204 204 204 205 205 205 205 205 205 205 206 206 206 205 205 205 206 208 209 210 212 212 212 212 211 211 211 213 214 214 214 215 214 214 214 214 214 215 215 215 216 217 218 219 219 220 220 221 221 221 222 222 223 225 226 227 227 229 230 231 232 231 232 233 234 236 236 238 237 227 225 230 229 233 236 233 233 232 233 235 237 241 245 249 253 256
206 205 204 205 205 205 205 205 205 206 206 206 206 207 207 206 206 207 208 210 210 210 212 213 213 213 212 212 213 214 214 215 215 216 215 216 216 215 216 216 217 217 217 217 219 219 220 221 221 221 222 223 224 224 224 226 227 228 229 230 232 233 234 235 235 236 235 236 237 239 240 230 224 230 229 230 235 235 236 234 234 238 239 241 245 250 255 257
207 206 205 205 206 206 206 206 206 206 207 207 207 207 208 208 208 208 209 211 212 212 212 213 214 214 213 213 213 214 215 215 216 216 217 218 217 217 217 217 218 219 218 219 220 220 221 222 222 223 223 224 226 226 227 228 229 231 231 232 233 234 236 237 237 238 237 238 238 240 243 236 223 226 229 229 233 235 237 238 237 240 243 244 247 252 258 261
207 207 206 205 206 207 207 207 207 207 208 208 208 208 209 209 210 210 210 213 213 213 213 214 215 215 215 215 214 215 216 216 217 218 218 219 219 219 220 219 219 221 220 221 221 221 223 224 224 225 225 226 227 229 229 230 231 233 233 235 236 237 238 239 239 240 240 240 240 240 245 243 227 221 226 229 232 234 237 239 240 242 246 248 250 254 258 262
207 207 207 206 206 206 208 208 208 208 209 209 209 209 210 210 211 211 212 214 214 213 215 216 216 216 217 217 216 216 217 217 219 220 220 220 221 221 222 221 222 223 223 223 224 224 225 226 227 226 227 227 228 230 231 231 233 234 236 237 238 239 240 241 242 242 241 241 241 241 245 248 235 215 220 230 232 235 237 239 241 243 246 248 251 255 258 261
207 208 207 207 207 207 208 209 209 209 210 210 210 211 211 212 212 212 213 215 215 214 216 218 218 218 219 219 218 217 217 219 220 221 221 223 223 223 223 223 224 225 224 224 224 224 225 226 227 227 227 228 228 230 232 233 234 236 238 239 240 241 241 242 243 243 244 242 242 242 244 249 244 217 214 229 233 235 237 240 241 243 246 249 251 254 256 259
207 208 208 208 207 208 208 209 210 210 210 211 211 212 212 213 213 214 214 216 216 215 216 218 219 220 221 220 220 219 219 220 221 222 223 223 224 224 225 225 226 226 226 225 225 225 225 227 228 229 229 229 229 231 233 235 236 237 239 240 241 242 243 244 244 245 246 244 243 244 244 249 250 228 212 225 233 235 236 239 242 244 246 249 251 253 255 257
208 208 209 209 208 208 208 209 209 210 210 211 212 212 213 214 215 216 215 216 217 217 217 218 219 221 222 222 222 221 221 222 223 224 225 225 225 225 226 227 227 227 227 227 227 227 227 228 230 231 232 232 233 234 235 237 238 239 240 241 242 243 244 245 246 246 247 246 245 246 244 246 249 241 223 225 231 235 238 239 242 245 246 248 251 253 255 256
209 208 208 209 208 208 209 210 209 210 211 212 213 213 214 215 216 216 216 216 219 219 218 219 220 221 223 223 223 223 223 224 225 226 227 228 228 228 228 229 230 230 230 230 230 231 231 231 232 233 234 235 236 236 237 238 239 240 241 242 243 244 245 245 246 247 248 248 248 248 246 245 248 250 243 235 233 236 241 242 243 244 246 248 251 253 255 257
211 210 209 209 209 209 209 210 211 211 212 213 214 214 214 217 218 217 216 216 219 221 219 220 220 221 223 224 224 224 224 225 226 227 229 229 229 230 230 231 232 232 233 234 235 235 235 235 234 235 236 236 237 237 239 240 241 242 243 244 244 245 246 247 247 248 248 249 250 250 249 246 246 251 251 246 241 239 242 246 248 248 248 248 250 252 254 257
213 212 213 211 211 211 210 211 211 212 214 215 216 215 215 218 219 218 218 219 220 221 220 221 221 221 222 223 225 226 226 226 226 227 228 230 230 230 231 231 232 233 233 235 236 236 236 236 236 237 238 239 239 240 241 241 242 243 243 244 245 246 248 249 249 249 249 250 250 250 250 249 248 251 254 254 251 246 245 248 252 253 252 252 252 253 254 256
214 215 216 215 214 213 212 212 212 213 214 216 217 218 218 220 220 220 221 221 222 223 222 222 222 222 222 223 224 225 226 227 227 227 228 230 231 231 232 233 234 235 236 237 238 238 238 238 237 237 238 238 239 240 240 240 241 242 243 245 247 249 250 251 251 251 251 250 250 250 251 251 250 252 255 257 257 254 251 249 251 254 256 258 259 258 258 259
217 217 219 219 218 216 216 215 214 214 215 216 219 221 221 221 221 222 223 223 223 224 224 223 223 224 224 224 224 225 227 227 228 228 229 230 231 231 232 234 235 236 238 239 241 242 242 242 241 241 241 240 241 241 241 241 243 244 245 248 250 250 250 251 252 252 252 251 250 251 252 253 252 253 255 258 260 259 257 253 253 254 256 259 261 261 261 263
218 219 220 221 221 220 220 219 217 216 217 218 221 223 222 221 223 224 225 225 224 225 226 225 224 225 226 226 226 227 228 229 229 230 230 230 232 232 233 234 235 236 237 239 240 242 243 243 243 243 243 243 243 244 244 244 245 246 248 250 250 250 250 251 252 252 253 254 253 252 253 254 254 254 255 258 260 262 262 260 259 257 258 259 260 260 260 262
216 219 219 219 221 222 221 222 222 221 220 221 223 225 225 224 225 225 226 226 226 226 228 227 226 226 227 228 228 229 229 230 231 232 232 232 233 233 234 236 238 238 239 239 240 240 241 242 243 242 242 243 243 243 244 245 246 248 249 249 249 249 250 251 252 253 254 256 255 254 253 253 253 255 257 257 259 261 263 263 263 262 262 262 262 261 260 261
212 215 217 216 216 219 221 222 223 224 224 225 226 226 226 227 227 227 226 227 227 227 228 229 227 227 228 228 229 230 231 232 233 234 234 235 236 236 237 238 239 240 241 242 242 243 242 243 243 244 243 243 244 245 247 248 248 248 248 248 248 250 251 252 252 253 254 256 257 256 254 253 253 255 257 258 258 260 262 263 264 265 265 264 264 263 263 262
214 213 215 214 213 215 220 220 220 223 225 226 227 226 225 227 228 227 227 227 228 228 229 229 229 228 228 228 228 230 231 232 233 234 235 236 237 237 238 239 240 241 242 242 242 242 242 243 244 245 245 245 246 248 250 250 249 248 248 248 249 250 252 252 253 253 254 255 257 257 256 253 253 254 256 258 260 260 262 263 263 264 264 265 266 267 267 267
215 214 214 213 210 211 216 220 220 224 227 225 224 225 224 225 227 228 227 227 227 228 229 230 230 229 229 228 229 229 230 231 232 233 234 235 236 236 237 238 239 240 240 241 241 242 243 243 244 245 246 247 248 249 249 248 248 248 248 248 249 250 251 251 252 252 253 254 255 257 257 254 253 254 255 257 259 260 261 262 262 263 264 266 268 269 270 270
210 213 214 213 211 210 213 217 219 223 226 225 223 223 223 224 226 227 227 228 227 228 229 230 231 231 230 229 229 230 230 232 233 233 235 235 235 236 236 237 237 237 239 240 241 243 244 244 244 245 246 247 247 247 246 246 246 247 247 248 248 249 250 251 252 252 252 252 253 255 257 256 255 254 255 256 257 259 260 261 262 263 265 267 269 270 271 272
209 209 211 213 213 212 213 216 218 220 223 224 224 222 221 221 223 224 226 227 228 228 229 230 231 231 231 230 230 230 231 232 232 233 235 236 236 237 237 237 237 237 238 239 240 241 241 242 242 243 244 244 245 245 245 246 246 247 248 249 249 250 251 251 252 252 251 252 253 254 256 258 259 258 257 257 257 258 260 261 263 265 267 268 270 271 272 272
215 210 208 210 213 214 215 217 218 220 221 223 223 223 222 221 221 222 223 225 226 227 228 230 231 232 232 231 231 232 232 232 232 232 232 233 233 234 236 237 237 237 238 239 241 241 241 242 242 242 242 241 242 243 244 245 247 248 248 249 248 248 248 248 249 249 250 252 254 254 256 259 260 260 260 259 259 260 261 263 265 265 266 268 270 270 270 271
219 216 212 210 211 213 215 216 217 218 220 221 222 223 224 224 224 223 224 225 224 224 226 228 229 231 231 231 232 232 233 233 233 232 231 231 231 231 233 234 235 236 236 237 239 239 240 241 242 242 243 243 244 246 249 251 251 250 249 249 249 248 248 248 249 249 251 253 254 255 257 259 258 259 259 259 260 262 263 264 265 265 266 267 268 268 268 269
221 220 219 216 213 212 214 215 217 218 220 221 222 222 223 225 226 226 227 228 226 224 225 226 228 229 230 231 231 232 232 232 233 233 232 232 232 231 232 234 235 236 235 236 237 238 239 240 241 242 244 246 247 248 250 250 249 249 249 249 249 249 248 249 249 249 252 254 253 253 256 256 255 256 257 258 260 263 263 263 263 264 265 265 266 267 268 268
224 222 222 221 220 216 214 214 215 217 219 221 222 223 223 224 226 227 228 230 230 229 229 229 229 229 230 232 233 233 232 232 232 233 233 233 233 233 233 234 236 237 237 237 238 238 239 240 241 243 244 245 246 246 246 245 245 246 246 246 246 246 247 247 248 250 252 252 252 254 256 256 255 257 258 258 260 261 260 260 261 262 264 266 267 267 267 268
227 226 225 224 224 222 219 217 216 216 216 217 219 221 222 223 225 227 228 230 232 233 233 232 231 231 232 233 234 234 233 232 231 231 232 234 235 235 235 235 236 237 238 239 240 241 241 242 242 243 244 244 245 245 245 246 246 246 246 246 246 246 247 248 250 252 253 253 255 256 257 256 255 255 256 256 257 259 260 261 262 264 265 267 268 267 267 267
228 229 228 227 227 226 224 222 221 220 219 217 217 217 217 219 222 224 226 228 230 232 234 234 233 233 233 234 235 236 235 233 232 231 232 234 235 236 236 236 237 237 238 240 242 243 244 244 244 244 245 245 245 246 246 247 248 248 247 247 248 248 249 251 253 253 253 254 256 254 254 255 255 255 256 257 258 260 261 262 263 265 265 264 264 265 267 267
230 230 231 230 229 228 227 225 225 225 224 222 220 216 215 216 219 221 224 226 228 230 233 235 235 235 235 235 237 238 238 238 238 237 236 236 237 238 238 238 238 239 240 242 244 246 246 246 246 247 247 248 248 248 249 249 250 250 250 250 250 251 252 253 253 254 255 256 257 257 257 255 254 256 258 259 260 260 260 261 262 262 262 262 262 263 265 267
231 232 233 232 231 230 229 228 227 227 227 226 225 221 219 219 219 222 224 226 229 230 231 233 234 235 236 236 237 239 241 242 242 242 241 241 241 240 240 240 241 241 243 245 247 248 248 248 248 248 248 249 249 250 251 252 252 252 251 251 252 253 253 254 255 256 257 259 259 259 258 256 256 259 260 259 259 259 259 260 261 261 261 262 262 262 264 266
232 233 234 234 233 232 231 231 230 229 228 228 228 226 225 224 223 224 225 226 228 230 231 231 231 231 233 235 237 240 242 244 244 243 241 241 242 240 239 239 240 241 243 246 247 248 247 248 249 249 249 250 250 251 252 252 252 252 253 254 255 256 257 257 257 258 259 260 260 260 259 258 258 259 257 256 258 259 259 260 262 262 262 262 263 264 265 266
Height
5728 5730 5733 5736 5739 5742 5745 5748 5751 5755 5758 5761 5764 5767 5770 5773 5777 5781 5784 5787 5790 5792 5795 5797 5800 5803 5806 5809 5812 5814 5818 5822 5825 5827 5829 5831 5835 5838 5840 5843 5845 5847 5849 5851 5853 5855 5857 5860 5862 5863 5864 5866 5867 5869 5871 5872 5873 5875 5876 5877 5878 5879 5880 5881 5881 5882 5883 5883 5884 5884 5884 5885 5885 5886 5886 5886 5886 5886 5886 5886 5886 5886 5886 5886 5886 5887 5887 5887
5726 5728 5731 5734 5737 5740 5743 5746 5749 5753 5756 5759 5763 5766 5769 5772 5776 5779 5782 5785 5788 5791 5794 5796 5799 5802 5805 5808 5811 5813 5817 5820 5823 5825 5827 5830 5833 5836 5839 5841 5844 5846 5849 5851 5852 5854 5856 5858 5860 5862 5864 5865 5867 5869 5870 5871 5872 5874 5875 5877 5878 5879 5879 5880 5881 5882 5882 5883 5883 5884 5884 5885 5885 5885 5886 5886 5886 5886 5886 5886 5886 5886 5886 5886 5886 5887 5887 5887
5724 5726 5729 5731 5735 5738 5741 5744 5747 5751 5754 5758 5761 5765 5768 5772 5775 5778 5781 5784 5786 5789 5792 5795 5798 5801 5803 5806 5809 5812 5815 5819 5821 5824 5826 5829 5832 5835 5837 5840 5843 5845 5847 5849 5851 5853 5854 5856 5859 5861 5863 5865 5866 5868 5869 5870 5872 5873 5875 5876 5877 5878 5879 5879 5880 5881 5882 5883 5883 5884 5884 5884 5885 5885 5886 5886 5886 5886 5887 5887 5886 5886 5886 5886 5886 5887 5887 5887
5721 5724 5726 5729 5732 5735 5739 5742 5745 5749 5753 5756 5760 5764 5767 5770 5774 5777 5780 5783 5785 5788 5791 5794 5797 5800 5802 5805 5808 5810 5813 5817 5820 5822 5824 5827 5830 5833 5836 5839 5841 5844 5846 5848 5850 5852 5853 5855 5857 5859 5862 5864 5866 5867 5868 5869 5871 5872 5874 5875 5876 5877 5878 5878 5879 5880 5881 5882 5882 5883 5884 5884 5884 5885 5885 5885 5886 5886 5886 5887 5887 5886 5886 5886 5886 5887 5887 5887
5718 5721 5724 5727 5730 5733 5736 5740 5743 5747 5751 5754 5758 5762 5765 5768 5772 5775 5778 5781 5784 5787 5790 5793 5796 5798 5801 5804 5807 5809 5812 5815 5818 5821 5823 5825 5828 5831 5834 5837 5840 5842 5844 5847 5849 5851 5852 5854 5856 5858 5860 5862 5864 5866 5867 5868 5870 5871 5873 5874 5875 5876 5877 5877 5878 5879 5880 5882 5882 5882 5883 5883 5884 5884 5884 5885 5885 5885 5886 5886 5887 5886 5886 5886 5886 5886 5886 5887
5715 5719 5722 5725 5728 5731 5734 5737 5741 5745 5749 5752 5756 5760 5763 5766 5769 5773 5777 5780 5783 5786 5789 5792 5795 5798 5800 5803 5806 5808 5810 5813 5817 5820 5822 5824 5827 5830 5833 5835 5838 5840 5843 5845 5847 5849 5851 5853 5855 5857 5859 5861 5863 5864 5866 5867 5868 5870 5872 5873 5874 5875 5875 5876 5877 5878 5879 5881 5881 5882 5882 5883 5883 5884 5884 5884 5884 5885 5885 5886 5886 5886 5886 5886 5886 5886 5886 5887
5712 5716 5719 5722 5725 5729 5732 5735 5738 5742 5746 5750 5754 5757 5760 5763 5767 5771 5774 5778 5781 5784 5788 5791 5794 5797 5799 5802 5804 5807 5809 5812 5815 5818 5820 5823 5826 5829 5831 5834 5836 5838 5841 5843 5846 5848 5850 5852 5854 5856 5858 5859 5861 5863 5864 5865 5867 5869 5870 5871 5872 5873 5874 5875 5876 5877 5878 5879 5880 5881 5881 5882 5883 5883 5883 5883 5884 5884 5884 5885 5886 5886 5886 5886 5886 5886 5886 5886
5710 5713 5716 5720 5722 5726 5729 5732 5735 5739 5743 5748 5751 5754 5758 5761 5764 5768 5772 5776 5779 5783 5786 5789 5792 5795 5798 5801 5803 5805 5808 5811 5813 5816 5819 5822 5824 5827 5830 5832 5835 5837 5839 5841 5844 5846 5848 5850 5852 5854 5856 5858 5860 5861 5862 5863 5865 5867 5869 5870 5870 5871 5872 5873 5875 5876 5877 5878 5879 5880 5880 5881 5882 5882 5882 5882 5883 5883 5883 5884 5885 5885 5885 5886 5886 5886 5886 5886
5706 5710 5714 5717 5720 5723 5726 5729 5733 5736 5741 5745 5748 5752 5755 5758 5761 5766 5770 5774 5778 5781 5784 5788 5791 5794 5797 5800 5802 5804 5806 5809 5812 5815 5817 5820 5823 5825 5828 5830 5833 5835 5837 5839 5842 5844 5846 5848 5851 5853 5855 5857 5858 5859 5860 5862 5864 5866 5867 5867 5868 5869 5870 5872 5873 5874 5875 5876 5877 5878 5879 5880 5881 5881 5882 5882 5882 5882 5882 5883 5883 5884 5885 5885 5885 5885 5885 5885
5703 5707 5711 5714 5717 5720 5723 5727 5730 5733 5737 5742 5746 5749 5753 5756 5759 5763 5768 5772 5776 5779 5783 5786 5789 5792 5795 5798 5800 5802 5805 5808 5810 5813 5816 5818 5821 5823 5826 5828 5831 5833 5835 5837 5839 5842 5844 5846 5849 5851 5853 5854 5856 5857 5858 5860 5862 5864 5865 5865 5866 5867 5868 5870 5871 5872 5873 5875 5876 5877 5878 5879 5879 5880 5881 5881 5881 5881 5882 5882 5883 5883 5884 5884 5884 5884 5884 5884
5700 5704 5708 5711 5714 5717 5721 5724 5727 5731 5734 5739 5743 5746 5750 5754 5757 5761 5765 5770 5774 5777 5781 5784 5787 5790 5793 5796 5798 5800 5803 5806 5808 5811 5814 5816 5819 5821 5824 5826 5829 5831 5833 5835 5837 5839 5841 5844 5847 5849 5850 5852 5853 5854 5856 5858 5860 5861 5862 5863 5864 5865 5867 5868 5870 5871 5872 5873 5874 5875 5876 5877 5878 5879 5880 5880 5880 5880 5881 5881 5882 5882 5883 5883 5883 5883 5883 5883
5697 5701 5705 5708 5711 5715 5718 5721 5725 5728 5732 5736 5739 5743 5748 5751 5755 5759 5763 5767 5771 5775 5779 5782 5786 5788 5791 5794 5796 5798 5801 5804 5806 5809 5812 5814 5817 5820 5822 5824 5827 5829 5831 5833 5835 5837 5839 5842 5844 5846 5848 5849 5851 5852 5853 5856 5858 5859 5860 5861 5862 5864 5865 5866 5868 5869 5870 5871 5872 5874 5875 5876 5876 5877 5878 5878 5878 5879 5880 5880 5880 5881 5881 5882 5882 5882 5882 5883
5694 5698 5701 5705 5708 5712 5715 5718 5722 5726 5730 5733 5737 5741 5745 5749 5752 5756 5761 5765 5769 5773 5777 5780 5784 5787 5789 5791 5793 5797 5800 5802 5805 5807 5810 5812 5815 5818 5820 5822 5824 5826 5828 5831 5833 5835 5837 5839 5841 5843 5845 5847 5848 5849 5851 5853 5855 5856 5858 5859 5861 5862 5864 5865 5866 5867 5868 5869 5871 5872 5874 5874 5874 5876 5876 5876 5877 5877 5878 5879 5879 5880 5880 5880 5881 5881 5881 5882
5690 5694 5698 5701 5705 5709 5712 5715 5719 5723 5727 5731 5734 5738 5742 5746 5750 5754 5759 5762 5766 5770 5774 5778 5781 5784 5787 5789 5792 5795 5798 5800 5803 5805 5808 5810 5813 5815 5818 5820 5822 5824 5826 5828 5831 5833 5835 5837 5839 5841 5843 5844 5846 5847 5849 5851 5852 5854 5856 5857 5859 5860 5862 5863 5864 5865 5866 5867 5868 5870 5871 5872 5873 5874 5874 5874 5875 5875 5876 5877 5878 5879 5879 5879 5879 5880 5880 5880
5687 5691 5694 5698 5702 5706 5709 5713 5716 5720 5724 5728 5732 5736 5740 5743 5747 5752 5756 5760 5764 5768 5771 5775 5779 5782 5785 5787 5790 5793 5796 5799 5801 5803 5806 5808 5810 5813 5815 5818 5820 5822 5824 5826 5828 5830 5832 5835 5837 5839 5840 5842 5843 5844 5846 5848 5850 5852 5853 5855 5857 5858 5860 5861 5862 5863 5864 5865 5867 5868 5869 5870 5871 5872 5872 5872 5873 5874 5875 5875 5876 5877 5878 5878 5878 5878 5879 5879
5683 5687 5691 5695 5699 5703 5706 5710 5714 5717 5721 5726 5730 5733 5737 5741 5744 5749 5753 5757 5761 5764 5768 5772 5776 5780 5783 5785 5788 5791 5794 5796 5798 5801 5803 5806 5808 5810 5813 5815 5817 5820 5822 5824 5826 5828 5830 5832 5834 5836 5838 5839 5840 5842 5844 5846 5848 5850 5852 5853 5855 5856 5857 5859 5860 5861 5862 5863 5865 5866 5868 5868 5869 5870 5870 5871 5872 5872 5873 5874 5874 5875 5876 5877 5877 5877 5878 5878
5679 5683 5687 5691 5695 5699 5703 5707 5710 5714 5718 5722 5726 5730 5735 5738 5741 5746 5750 5754 5758 5762 5766 5769 5773 5777 5780 5783 5786 5789 5791 5793 5796 5798 5801 5803 5806 5808 5810 5813 5815 5817 5819 5821 5824 5826 5827 5829 5832 5834 5835 5836 5838 5839 5841 5844 5846 5848 5850 5851 5852 5854 5855 5857 5858 5859 5860 5862 5863 5864 5866 5866 5867 5868 5868 5869 5870 5871 5872 5872 5873 5874 5875 5876 5876 5876 5876 5876
5676 5680 5684 5688 5692 5696 5700 5703 5707 5711 5715 5719 5723 5727 5731 5736 5739 5742 5747 5752 5756 5759 5763 5766 5770 5774 5777 5781 5784 5786 5788 5791 5793 5795 5798 5801 5803 5805 5808 5810 5813 5815 5817 5819 5821 5823 5825 5827 5829 5831 5832 5834 5836 5838 5840 5842 5844 5845 5847 5848 5850 5851 5853 5855 5856 5857 5858 5859 5861 5862 5864 5865 5864 5866 5867 5867 5869 5869 5870 5871 5872 5872 5873 5874 5874 5874 5874 5875
5672 5676 5680 5685 5689 5693 5697 5700 5704 5708 5712 5716 5720 5724 5728 5733 5736 5739 5744 5749 5753 5756 5759 5763 5768 5772 5776 5779 5781 5783 5786 5788 5790 5793 5795 5798 5800 5803 5805 5808 5810 5812 5815 5817 5819 5821 5823 5825 5826 5828 5831 5833 5834 5836 5838 5839 5841 5842 5844 5846 5848 5850 5852 5853 5854 5855 5856 5857 5859 5860 5862 5863 5863 5864 5865 5865 5867 5868 5868 5869 5870 5871 5871 5872 5872 5873 5873 5873
5669 5673 5677 5682 5686 5690 5693 5697 5701 5705 5709 5713 5717 5721 5725 5729 5733 5736 5741 5746 5750 5754 5758 5762 5766 5769 5773 5775 5777 5780 5783 5786 5788 5790 5793 5795 5798 5800 5803 5805 5808 5810 5812 5814 5817 5819 5821 5822 5824 5827 5829 5830 5831 5832 5834 5836 5838 5840 5842 5843 5845 5847 5849 5850 5851 5853 5854 5855 5856 5857 5859 5860 5861 5861 5862 5863 5865 5866 5867 5867 5868 5869 5869 5870 5871 5871 5871 5871
5666 5670 5674 5678 5682 5686 5690 5694 5698 5702 5706 5710 5714 5718 5723 5727 5732 5736 5740 5743 5747 5751 5755 5758 5762 5765 5768 5772 5774 5777 5780 5783 5785 5788 5790 5793 5795 5798 5800 5803 5805 5807 5809 5812 5814 5816 5818 5820 5822 5824 5825 5826 5828 5829 5831 5833 5836 5837 5839 5841 5843 5845 5846 5848 5849 5850 5851 5852 5853 5854 5856 5858 5859 5859 5859 5861 5863 5864 5865 5865 5866 5866 5867 5868 5869 5870 5870 5870
5663 5667 5671 5675 5679 5683 5687 5691 5695 5699 5703 5708 5712 5716 5720 5725 5729 5733 5737 5741 5745 5748 5751 5754 5758 5761 5765 5768 5771 5774 5777 5780 5783 5785 5788 5790 5793 5795 5798 5800 5802 5804 5807 5809 5811 5813 5815 5817 5819 5820 5822 5824 5826 5827 5829 5831 5833 5835 5837 5838 5840 5842 5844 5845 5846 5847 5848 5849 5850 5851 5853 5856 5857 5857 5857 5858 5861 5862 5862 5863 5864 5864 5865 5866 5867 5867 5868 5868
5660 5664 5668 5672 5676 5680 5684 5688 5692 5696 5700 5705 5709 5713 5717 5721 5725 5729 5732 5736 5740 5744 5748 5751 5754 5757 5761 5764 5768 5771 5774 5777 5780 5783 5785 5788 5790 5793 5795 5798 5800 5802 5804 5806 5808 5811 5813 5814 5816 5818 5820 5821 5823 5825 5827 5829 5831 5833 5835 5836 5837 5839 5841 5842 5844 5845 5846 5847 5848 5848 5850 5854 5855 5855 5855 5856 5858 5860 5860 5861 5862 5862 5863 5863 5864 5864 5865 5865
5657 5661 5664 5668 5672 5677 5681 5685 5689 5693 5697 5701 5705 5709 5714 5718 5721 5725 5728 5731 5735 5739 5743 5747 5750 5754 5757 5761 5765 5768 5771 5774 5777 5780 5783 5785 5787 5790 5792 5794 5797 5799 5801 5803 5806 5808 5809 5811 5813 5815 5817 5818 5820 5822 5824 5826 5828 5830 5832 5833 5835 5836 5838 5840 5841 5842 5843 5844 5845 5846 5847 5851 5852 5852 5853 5854 5855 5857 5857 5859 5859 5860 5861 5861 5861 5862 5862 5862
5654 5657 5661 5665 5669 5673 5677 5681 5685 5689 5693 5698 5702 5706 5710 5714 5718 5721 5724 5727 5730 5734 5737 5741 5746 5749 5754 5758 5761 5764 5767 5770 5773 5776 5779 5782 5784 5787 5789 5791 5794 5796 5798 5800 5802 5804 5806 5808 5810 5812 5814 5816 5817 5819 5822 5823 5825 5827 5829 5831 5832 5834 5835 5837 5838 5839 5840 5841 5842 5843 5843 5847 5850 5850 5851 5852 5853 5854 5854 5856 5857 5857 5858 5858 5859 5860 5859 5860
5651 5654 5658 5662 5665 5670 5674 5678 5681 5686 5690 5694 5698 5703 5706 5710 5713 5717 5720 5723 5725 5729 5733 5737 5741 5745 5750 5754 5757 5760 5763 5766 5770 5773 5776 5778 5781 5783 5785 5788 5791 5793 5795 5797 5799 5801 5803 5805 5807 5809 5811 5813 5814 5816 5819 5821 5823 5824 5826 5827 5829 5830 5832 5833 5835 5836 5837 5838 5840 5840 5840 5843 5847 5847 5848 5850 5850 5851 5851 5853 5854 5854 5855 5856 5857 5857 5856 5856
5648 5651 5655 5658 5662 5666 5670 5674 5678 5683 5686 5690 5694 5699 5702 5706 5709 5713 5717 5717 5719 5725 5730 5733 5738 5743 5747 5750 5753 5757 5760 5764 5767 5770 5772 5775 5778 5780 5782 5785 5788 5789 5792 5794 5796 5799 5801 5803 5805 5806 5808 5810 5812 5814 5815 5817 5819 5820 5822 5824 5825 5827 5828 5830 5832 5833 5834 5835 5836 5837 5837 5839 5843 5845 5846 5847 5847 5848 5849 5850 5851 5852 5852 5853 5854 5854 5854 5853
5644 5647 5651 5655 5658 5662 5666 5670 5675 5679 5682 5686 5691 5694 5697 5701 5705 5709 5711 5711 5714 5721 5725 5729 5735 5739 5742 5745 5749 5753 5757 5761 5764 5766 5769 5772 5774 5776 5779 5782 5784 5786 5789 5791 5794 5797 5798 5800 5802 5803 5805 5807 5809 5810 5812 5814 5815 5817 5819 5821 5822 5824 5825 5827 5828 5830 5831 5832 5833 5835 5835 5835 5838 5844 5844 5843 5844 5845 5847 5848 5848 5848 5849 5850 5851 5851 5850 5850
5640 5644 5648 5651 5655 5659 5663 5667 5671 5675 5678 5682 5686 5689 5693 5696 5700 5703 5704 5705 5710 5718 5722 5726 5731 5734 5737 5741 5746 5750 5753 5757 5759 5762 5765 5767 5770 5773 5776 5778 5780 5782 5785 5788 5790 5792 5794 5796 5798 5799 5801 5803 5805 5806 5808 5810 5811 5814 5815 5817 5819 5821 5822 5823 5825 5826 5827 5828 5830 5832 5833 5831 5833 5840 5842 5840 5841 5843 5844 5845 5845 5845 5846 5847 5847 5847 5847 5847
5636 5640 5644 5648 5652 5656 5660 5663 5666 5670 5674 5677 5681 5685 5688 5691 5694 5695 5697 5701 5708 5714 5718 5722 5727 5730 5733 5738 5742 5746 5749 5752 5755 5758 5760 5762 5765 5769 5771 5773 5776 5778 5781 5784 5786 5788 5791 5792 5794 5796 5798 5800 5802 5803 5804 5806 5808 5810 5812 5813 5815 5817 5818 5820 5821 5823 5824 5825 5827 5829 5831 5829 5828 5835 5840 5838 5839 5841 5841 5841 5841 5842 5843 5843 5843 5843 5843 5843
5632 5636 5640 5645 5649 5652 5656 5659 5662 5666 5669 5672 5675 5679 5682 5685 5687 5688 5693 5702 5707 5710 5714 5718 5722 5726 5730 5735 5739 5743 5746 5748 5750 5753 5755 5758 5761 5764 5766 5768 5771 5774 5776 5779 5782 5784 5787 5788 5790 5793 5795 5797 5798 5800 5801 5803 5804 5806 5808 5810 5811 5813 5814 5816 5818 5819 5820 5822 5824 5825 5827 5827 5824 5829 5837 5837 5836 5838 5838 5838 5839 5839 5840 5840 5840 5839 5839 5839
5629 5633 5637 5641 5644 5648 5651 5654 5659 5662 5663 5666 5670 5673 5677 5678 5679 5684 5694 5702 5702 5704 5710 5715 5719 5723 5727 5730 5734 5738 5741 5744 5746 5749 5752 5755 5757 5760 5763 5765 5768 5771 5773 5776 5779 5781 5783 5785 5788 5789 5791 5793 5795 5796 5797 5799 5800 5802 5804 5806 5807 5809 5811 5812 5814 5815 5816 5818 5820 5820 5823 5823 5822 5825 5830 5833 5834 5835 5834 5835 5836 5836 5836 5836 5836 5835 5835 5835
5625 5630 5633 5637 5640 5643 5646 5650 5655 5657 5659 5662 5664 5667 5671 5671 5675 5685 5694 5697 5695 5699 5707 5711 5715 5720 5722 5725 5728 5731 5735 5738 5742 5745 5747 5750 5753 5756 5758 5761 5764 5768 5771 5773 5775 5777 5780 5781 5784 5786 5787 5789 5790 5792 5793 5795 5797 5798 5800 5801 5803 5805 5806 5808 5810 5810 5812 5814 5815 5816 5818 5819 5821 5822 5823 5827 5831 5832 5831 5831 5831 5832 5832 5832 5831 5831 5831 5832
5622 5626 5629 5633 5637 5639 5643 5647 5650 5652 5654 5656 5659 5662 5663 5666 5677 5686 5689 5691 5691 5696 5703 5707 5710 5713 5716 5720 5723 5726 5730 5733 5736 5740 5741 5744 5747 5750 5754 5757 5760 5763 5766 5767 5769 5772 5774 5776 5780 5782 5783 5785 5787 5788 5789 5791 5792 5793 5795 5797 5799 5801 5803 5804 5805 5806 5808 5810 5809 5811 5812 5815 5819 5818 5819 5822 5825 5828 5828 5828 5827 5826 5826 5826 5826 5827 5828 5828
5618 5622 5625 5629 5632 5635 5639 5642 5644 5647 5649 5651 5654 5655 5658 5667 5678 5682 5682 5685 5688 5692 5698 5701 5704 5707 5710 5714 5717 5720 5724 5727 5731 5734 5736 5738 5742 5746 5750 5753 5756 5759 5762 5763 5765 5767 5769 5772 5776 5777 5778 5780 5781 5782 5784 5785 5787 5788 5791 5793 5795 5798 5799 5799 5799 5802 5804 5804 5804 5806 5807 5811 5815 5815 5815 5816 5819 5822 5824 5824 5823 5822 5821 5820 5820 5822 5823 5823
5614 5618 5621 5625 5628 5631 5634 5636 5639 5641 5643 5646 5647 5649 5658 5669 5675 5675 5677 5680 5685 5689 5691 5694 5697 5701 5704 5708 5712 5715 5718 5722 5725 5728 5731 5735 5738 5741 5745 5748 5752 5755 5758 5760 5761 5763 5765 5768 5771 5772 5773 5775 5776 5777 5779 5780 5782 5784 5787 5790 5792 5793 5793 5793 5795 5797 5798 5798 5800 5802 5804 5807 5810 5811 5812 5813 5813 5815 5816 5818 5818 5818 5817 5815 5814 5817 5818 5817
5609 5613 5618 5621 5623 5626 5629 5632 5634 5635 5638 5640 5642 5650 5661 5666 5667 5669 5672 5676 5680 5683 5683 5688 5693 5696 5700 5703 5707 5711 5714 5716 5718 5722 5726 5730 5732 5736 5741 5744 5747 5750 5753 5755 5756 5757 5760 5762 5764 5766 5768 5769 5771 5772 5773 5776 5778 5781 5784 5787 5788 5786 5787 5788 5789 5791 5792 5792 5796 5799 5800 5803 5805 5806 5809 5809 5808 5808 5808 5810 5812 5812 5812 5811 5810 5812 5812 5811
5604 5608 5613 5617 5619 5622 5625 5627 5628 5631 5633 5634 5640 5650 5656 5659 5661 5665 5668 5671 5675 5677 5678 5682 5688 5692 5695 5699 5703 5706 5708 5710 5713 5717 5721 5724 5728 5733 5738 5740 5742 5746 5748 5749 5749 5751 5754 5755 5756 5759 5761 5763 5764 5765 5768 5772 5774 5777 5779 5781 5780 5779 5780 5783 5784 5786 5787 5788 5791 5794 5796 5798 5800 5802 5804 5804 5804 5803 5802 5803 5804 5805 5805 5804 5804 5805 5806 5805
5599 5603 5607 5611 5615 5618 5620 5622 5624 5625 5626 5630 5639 5646 5649 5653 5656 5659 5662 5666 5668 5671 5673 5677 5683 5687 5690 5694 5698 5701 5703 5706 5709 5713 5716 5719 5725 5731 5734 5735 5738 5741 5742 5743 5744 5745 5748 5749 5749 5752 5755 5756 5757 5760 5764 5768 5770 5772 5773 5774 5774 5774 5776 5778 5779 5780 5782 5783 5785 5788 5790 5793 5796 5799 5799 5798 5799 5798 5797 5798 5798 5798 5798 5797 5797 5797 5798 5798
5594 5598 5601 5606 5612 5615 5616 5618 5619 5618 5620 5627 5635 5639 5643 5647 5649 5652 5657 5660 5662 5665 5668 5672 5677 5681 5685 5689 5692 5694 5697 5701 5704 5707 5710 5715 5721 5726 5729 5730 5733 5735 5736 5736 5737 5738 5741 5743 5744 5747 5748 5749 5753 5757 5761 5763 5764 5765 5766 5767 5769 5770 5771 5772 5773 5775 5777 5778 5779 5781 5783 5788 5793 5795 5793 5793 5793 5793 5791 5792 5792 5792 5790 5790 5790 5789 5790 5791
5589 5593 5597 5602 5606 5610 5612 5613 5613 5613 5616 5624 5629 5632 5637 5640 5643 5647 5650 5653 5656 5660 5663 5666 5670 5675 5679 5683 5686 5689 5692 5694 5698 5701 5704 5709 5715 5719 5723 5725 5727 5729 5728 5727 5729 5732 5735 5737 5739 5740 5741 5745 5750 5753 5754 5755 5757 5758 5759 5761 5764 5764 5765 5765 5765 5768 5771 5772 5774 5775 5776 5781 5787 5789 5789 5789 5788 5786 5786 5786 5785 5785 5785 5785 5784 5783 5783 5783
5585 5588 5593 5597 5601 5604 5606 5607 5607 5609 5613 5620 5625 5628 5631 5634 5637 5641 5644 5648 5652 5654 5658 5661 5665 5669 5673 5677 5680 5683 5686 5689 5692 5695 5699 5705 5710 5713 5717 5718 5719 5720 5720 5721 5724 5728 5729 5730 5732 5734 5737 5741 5743 5744 5746 5748 5749 5750 5751 5755 5758 5757 5757 5757 5758 5762 5764 5765 5769 5769 5769 5774 5780 5784 5784 5784 5782 5780 5780 5780 5779 5779 5780 5779 5778 5777 5776 5775
5579 5582 5586 5590 5594 5596 5598 5599 5602 5605 5609 5615 5620 5623 5627 5629 5632 5635 5639 5643 5646 5650 5653 5656 5659 5663 5666 5671 5674 5677 5680 5683 5686 5691 5696 5700 5704 5707 5709 5710 5711 5713 5714 5715 5718 5720 5720 5721 5724 5727 5730 5733 5734 5735 5739 5740 5742 5743 5745 5749 5750 5750 5752 5752 5752 5755 5755 5758 5762 5762 5763 5769 5773 5777 5779 5778 5777 5775 5774 5774 5774 5774 5775 5772 5771 5770 5769 5767
5572 5576 5579 5583 5585 5587 5590 5593 5598 5603 5606 5610 5614 5618 5621 5624 5627 5631 5634 5637 5641 5644 5648 5651 5654 5656 5660 5665 5668 5671 5674 5677 5680 5686 5690 5693 5697 5700 5701 5702 5704 5706 5708 5710 5712 5713 5712 5713 5717 5719 5720 5723 5724 5726 5731 5733 5735 5737 5739 5742 5742 5744 5744 5742 5744 5745 5744 5752 5757 5753 5757 5766 5768 5770 5772 5771 5769 5768 5769 5770 5769 5768 5768 5766 5765 5764 5762 5760
5565 5569 5572 5575 5578 5581 5586 5590 5595 5598 5601 5605 5609 5611 5615 5618 5622 5627 5629 5631 5635 5638 5641 5644 5647 5650 5654 5658 5661 5665 5668 5671 5675 5679 5682 5686 5690 5692 5694 5695 5697 5700 5703 5704 5706 5706 5705 5706 5710 5711 5711 5715 5718 5722 5728 5731 5730 5730 5733 5736 5736 5737 5737 5736 5739 5737 5737 5748 5750 5744 5752 5762 5762 5763 5764 5762 5762 5762 5763 5764 5762 5760 5761 5760 5758 5756 5755 5754
5559 5562 5566 5569 5573 5576 5581 5585 5589 5592 5596 5600 5603 5606 5608 5612 5617 5621 5623 5625 5629 5633 5636 5638 5641 5645 5648 5651 5655 5658 5662 5666 5669 5672 5676 5680 5683 5686 5688 5689 5691 5693 5697 5698 5699 5699 5698 5699 5703 5704 5706 5710 5715 5719 5724 5724 5722 5723 5727 5729 5729 5730 5731 5731 5730 5729 5735 5742 5739 5738 5748 5753 5754 5756 5755 5755 5757 5755 5756 5757 5755 5753 5753 5753 5751 5749 5747 5747
5552 5556 5560 5563 5566 5570 5575 5579 5583 5588 5592 5595 5597 5601 5604 5608 5612 5615 5616 5620 5624 5628 5631 5633 5636 5639 5643 5646 5650 5652 5656 5660 5662 5665 5670 5673 5676 5679 5682 5684 5685 5687 5690 5692 5692 5692 5693 5693 5697 5700 5701 5706 5709 5711 5712 5712 5712 5715 5718 5719 5720 5721 5722 5721 5720 5725 5732 5730 5726 5737 5744 5742 5748 5751 5747 5750 5751 5746 5748 5750 5748 5747 5746 5744 5742 5742 5741 5740
5545 5550 5553 5555 5559 5564 5570 5574 5578 5582 5585 5587 5590 5595 5598 5601 5605 5608 5612 5616 5619 5622 5624 5627 5631 5636 5640 5643 5644 5646 5649 5653 5656 5660 5664 5666 5669 5672 5674 5677 5678 5680 5683 5684 5684 5686 5687 5689 5692 5695 5696 5699 5702 5702 5703 5705 5705 5707 5709 5710 5712 5714 5713 5713 5715 5723 5726 5718 5721 5736 5736 5731 5741 5744 5739 5744 5744 5739 5742 5743 5740 5741 5739 5735 5733 5734 5734 5734
5539 5543 5545 5548 5553 5558 5563 5567 5570 5572 5575 5578 5582 5587 5591 5595 5600 5604 5608 5610 5612 5615 5618 5622 5628 5633 5635 5637 5637 5639 5642 5646 5651 5656 5659 5661 5663 5664 5667 5669 5670 5673 5675 5676 5677 5679 5681 5683 5686 5688 5690 5693 5693 5694 5697 5697 5697 5699 5702 5703 5706 5707 5708 5709 5712 5716 5716 5711 5718 5728 5723 5723 5735 5736 5733 5738 5738 5735 5736 5735 5733 5733 5729 5727 5728 5728 5726 5726
5534 5536 5538 5541 5546 5550 5554 5558 5561 5564 5567 5571 5575 5581 5586 5591 5596 5600 5602 5604 5608 5611 5614 5618 5624 5627 5629 5631 5632 5634 5638 5643 5647 5651 5653 5655 5657 5659 5662 5663 5665 5668 5669 5670 5672 5673 5675 5677 5679 5682 5684 5685 5686 5689 5691 5690 5690 5692 5694 5696 5700 5702 5702 5704 5705 5708 5707 5706 5713 5717 5713 5718 5729 5729 5728 5730 5729 5727 5728 5726 5725 5722 5719 5721 5725 5722 5719 5719
5528 5530 5532 5535 5539 5541 5544 5549 5553 5555 5559 5564 5571 5579 5583 5587 5592 5594 5595 5598 5602 5605 5609 5615 5619 5620 5621 5623 5624 5628 5635 5638 5641 5645 5648 5649 5651 5654 5656 5657 5659 5662 5664 5664 5665 5667 5669 5670 5673 5677 5677 5677 5682 5683 5682 5684 5684 5682 5685 5691 5694 5695 5696 5697 5699 5701 5701 5702 5706 5706 5705 5713 5722 5721 5721 5721 5718 5718 5719 5717 5713 5712 5714 5717 5717 5715 5715 5715
5521 5523 5526 5528 5531 5533 5537 5542 5544 5547 5553 5561 5569 5575 5577 5580 5584 5584 5585 5590 5595 5599 5604 5609 5611 5611 5612 5614 5619 5626 5631 5631 5633 5638 5640 5641 5644 5646 5648 5649 5651 5655 5656 5656 5657 5660 5662 5663 5667 5669 5668 5671 5676 5675 5675 5677 5673 5672 5681 5688 5689 5688 5689 5690 5691 5694 5695 5695 5696 5696 5699 5708 5712 5709 5710 5712 5710 5709 5710 5707 5703 5705 5710 5711 5709 5709 5710 5710